Weather History for Bentonville, AR

Change the Weather History Date:

Sunday, February 10, 2013

  Actual Average Record
Temperature  
Mean Temperature 50 °F -  
Max Temperature 59 °F 48 °F 80 °F (1954)
Min Temperature 41 °F 23 °F -14 °F (2011)
Degree Days  
Heating Degree Days 15    
Moisture  
Dew Point 37 °F    
Average Humidity 60    
Maximum Humidity 88    
Minimum Humidity 31    
Precipitation  
Precipitation 0.06 in - - ()
Sea Level Pressure  
Sea Level Pressure 29.76 in    
Wind  
Wind Speed 14 mph (SW)    
Max Wind Speed 23 mph    
Max Gust Speed 33 mph    
Visibility 10 miles    
Events Thunderstorm    
Averages and records for this station are not official NWS values.
T = Trace of Precipitation, MM = Missing Value Source: NWS Daily Summary

Daily Weather History Graph

Daily Weather History Graph

Search for Another Location

Airport:

Trip Planner

Search our weather history database for the weather conditions in past years. The results will help you decide how hot, cold, wet, or windy it might be!

Date:

Astronomy

Feb. 10, 2013 Rise Set
Actual Time 7:09 AM CST 5:53 PM CST
Civil Twilight 6:43 AM CST 6:19 PM CST
Nautical Twilight 6:12 AM CST 6:50 PM CST
Astronomical Twilight 5:42 AM CST 7:20 PM CST
Moon 7:02 AM CST (2/10) 6:41 PM CST (2/10)
Length of Visible Light 11h 36m
Length of Day
10h 43m
New Moon, 0% of the Moon is Illuminated
Feb 10
New Moon
Feb 17
First Quarter
Feb 25
Full
Mar 4
Last Quarter
Mar 11
New

Hourly Weather History & Observations

Time (CST) Temp. Windchill Dew Point Humidity Pressure Visibility Wind Dir Wind Speed Gust Speed Precip Events Conditions
12:15 AM 44.6 °F 37.8 °F 39.2 °F 81% 29.81 in 10.0 mi SE 15.0 mph - N/A   Overcast
12:35 AM 44.6 °F 37.8 °F 41.0 °F 87% 29.79 in 10.0 mi SE 15.0 mph 20.7 mph N/A   Overcast
12:55 AM 46.4 °F 39.2 °F 41.0 °F 81% 29.78 in 10.0 mi SE 18.4 mph 21.9 mph N/A   Overcast
1:15 AM 46.4 °F 40.4 °F 42.8 °F 87% 29.78 in 10.0 mi SSE 13.8 mph 21.9 mph N/A   Overcast
1:35 AM 46.4 °F 40.7 °F 42.8 °F 87% 29.76 in 10.0 mi SSE 12.7 mph 18.4 mph N/A   Overcast
1:55 AM 48.2 °F - 44.6 °F 87% 29.74 in 9.0 mi SSE 12.7 mph - N/A   Overcast
2:16 AM 48.2 °F - 44.6 °F 87% 29.70 in 8.0 mi SE 13.8 mph - N/A   Overcast
2:35 AM 48.2 °F - 44.6 °F 87% 29.70 in 8.0 mi SSE 13.8 mph 21.9 mph N/A   Overcast
2:55 AM 50.0 °F - 46.4 °F 87% 29.73 in 9.0 mi South 5.8 mph - N/A   Overcast
3:15 AM 50.0 °F - 46.4 °F 87% 29.72 in 8.0 mi SSE 6.9 mph - N/A Thunderstorm Overcast
3:35 AM 50.0 °F - 46.4 °F 87% 29.73 in 6.0 mi WSW 11.5 mph - 0.04 in Thunderstorm Thunderstorm
4:15 AM 50.0 °F - 46.4 °F 87% 29.69 in 7.0 mi South 17.3 mph 23.0 mph N/A Thunderstorm Thunderstorm
4:35 AM 50.0 °F - 46.4 °F 87% 29.66 in 9.0 mi SSE 13.8 mph - N/A   Overcast
4:55 AM 51.8 °F - 46.4 °F 82% 29.66 in 10.0 mi SSE 17.3 mph 21.9 mph N/A   Overcast
5:55 AM 51.8 °F - 48.2 °F 88% 29.65 in 10.0 mi SSE 10.4 mph - 0.02 in   Mostly Cloudy
6:15 AM 51.8 °F - 48.2 °F 88% 29.64 in 10.0 mi South 4.6 mph - N/A   Overcast
6:35 AM 51.8 °F - 48.2 °F 88% 29.64 in 10.0 mi South 8.1 mph - N/A   Overcast
6:55 AM 53.6 °F - 48.2 °F 82% 29.64 in 10.0 mi SSW 11.5 mph - N/A   Mostly Cloudy
7:35 AM 53.6 °F - 50.0 °F 88% 29.66 in 10.0 mi SSW 13.8 mph 19.6 mph N/A   Overcast
7:55 AM 53.6 °F - 50.0 °F 88% 29.65 in 10.0 mi SSW 13.8 mph 21.9 mph N/A   Overcast
8:15 AM 55.4 °F - 51.8 °F 88% 29.67 in 10.0 mi SSW 12.7 mph 23.0 mph N/A   Overcast
8:35 AM 55.4 °F - 51.8 °F 88% 29.68 in 10.0 mi SW 16.1 mph 21.9 mph N/A   Overcast
8:56 AM 55.4 °F - 50.0 °F 82% 29.69 in 10.0 mi SW 20.7 mph 25.3 mph N/A   Overcast
9:15 AM 55.4 °F - 48.2 °F 77% 29.68 in 10.0 mi SW 13.8 mph - N/A   Mostly Cloudy
9:35 AM 53.6 °F - 46.4 °F 77% 29.68 in 10.0 mi SW 16.1 mph - N/A   Partly Cloudy
9:55 AM 53.6 °F - 46.4 °F 77% 29.69 in 10.0 mi SW 17.3 mph 25.3 mph N/A   Mostly Cloudy
10:15 AM 55.4 °F - 46.4 °F 72% 29.69 in 10.0 mi WSW 20.7 mph 27.6 mph N/A   Mostly Cloudy
10:35 AM 55.4 °F - 42.8 °F 63% 29.70 in 10.0 mi WSW 18.4 mph 25.3 mph N/A   Scattered Clouds
10:55 AM 55.4 °F - 39.2 °F 54% 29.70 in 10.0 mi WSW 18.4 mph 26.5 mph N/A   Clear
11:15 AM 57.2 °F - 39.2 °F 51% 29.70 in 10.0 mi SW 16.1 mph 23.0 mph N/A   Clear
11:36 AM 57.2 °F - 35.6 °F 44% 29.70 in 10.0 mi WSW 16.1 mph - N/A   Clear
11:55 AM 57.2 °F - 37.4 °F 48% 29.70 in 10.0 mi WSW 21.9 mph 26.5 mph N/A   Clear
12:15 PM 57.2 °F - 33.8 °F 41% 29.69 in 10.0 mi WSW 20.7 mph 26.5 mph N/A   Clear
12:55 PM 57.2 °F - 32.0 °F 38% 29.69 in 10.0 mi WSW 20.7 mph 26.5 mph N/A   Clear
1:15 PM 57.2 °F - 30.2 °F 36% 29.68 in 10.0 mi West 19.6 mph 25.3 mph N/A   Clear
1:35 PM 57.2 °F - 30.2 °F 36% 29.69 in 10.0 mi WSW 21.9 mph 29.9 mph N/A   Clear
1:55 PM 59.0 °F - 30.2 °F 34% 29.69 in 10.0 mi WSW 20.7 mph 26.5 mph N/A   Clear
2:15 PM 59.0 °F - 30.2 °F 34% 29.70 in 10.0 mi WSW 20.7 mph 26.5 mph N/A   Clear
2:56 PM 59.0 °F - 28.4 °F 31% 29.71 in 10.0 mi West 16.1 mph 24.2 mph N/A   Clear
3:15 PM 59.0 °F - 28.4 °F 31% 29.72 in 10.0 mi West 18.4 mph 25.3 mph N/A   Clear
3:35 PM 57.2 °F - 28.4 °F 33% 29.73 in 10.0 mi West 18.4 mph 32.2 mph N/A   Clear
3:55 PM 57.2 °F - 28.4 °F 33% 29.73 in 10.0 mi West 16.1 mph 26.5 mph N/A   Clear
4:15 PM 57.2 °F - 28.4 °F 33% 29.74 in 10.0 mi West 16.1 mph 21.9 mph N/A   Clear
4:35 PM 57.2 °F - 28.4 °F 33% 29.75 in 10.0 mi SW 18.4 mph 23.0 mph N/A   Clear
4:55 PM 57.2 °F - 28.4 °F 33% 29.75 in 10.0 mi WSW 17.3 mph 21.9 mph N/A   Clear
5:35 PM 55.4 °F - 26.6 °F 33% 29.78 in 10.0 mi WSW 9.2 mph - N/A   Clear
5:55 PM 53.6 °F - 28.4 °F 38% 29.79 in 10.0 mi West 11.5 mph 17.3 mph N/A   Clear
6:15 PM 53.6 °F - 28.4 °F 38% 29.80 in 10.0 mi WSW 8.1 mph - N/A   Clear
6:35 PM 51.8 °F - 28.4 °F 41% 29.81 in 10.0 mi WSW 6.9 mph - N/A   Clear
6:55 PM 50.0 °F - 28.4 °F 43% 29.83 in 10.0 mi WSW 9.2 mph - N/A   Clear
7:15 PM 50.0 °F - 28.4 °F 43% 29.84 in 10.0 mi WSW 5.8 mph - N/A   Clear
8:15 PM 50.0 °F - 24.8 °F 37% 29.89 in 10.0 mi WNW 18.4 mph 25.3 mph N/A   Clear
8:35 PM 48.2 °F - 26.6 °F 43% 29.92 in 10.0 mi NW 19.6 mph 25.3 mph N/A   Clear
8:55 PM 46.4 °F 38.3 °F 24.8 °F 43% 29.94 in 10.0 mi WNW 23.0 mph 33.4 mph N/A   Clear
9:15 PM 44.6 °F 37.8 °F 24.8 °F 46% 29.96 in 10.0 mi NW 15.0 mph 24.2 mph N/A   Clear
9:55 PM 44.6 °F 37.4 °F 24.8 °F 46% 29.99 in 10.0 mi WNW 16.1 mph 23.0 mph N/A   Clear
10:15 PM 44.6 °F 38.4 °F 24.8 °F 46% 30.00 in 10.0 mi WNW 12.7 mph - N/A   Clear
10:35 PM 42.8 °F 36.2 °F 24.8 °F 49% 30.01 in 10.0 mi WNW 12.7 mph 20.7 mph N/A   Clear
10:55 PM 42.8 °F 37.0 °F 24.8 °F 49% 30.02 in 10.0 mi WNW 10.4 mph 18.4 mph N/A   Clear
11:15 PM 42.8 °F 38.0 °F 24.8 °F 49% 30.02 in 10.0 mi NW 8.1 mph - N/A   Clear
11:35 PM 41.0 °F 35.8 °F 24.8 °F 53% 30.03 in 10.0 mi NW 8.1 mph - N/A   Clear
11:55 PM 41.0 °F 38.0 °F 24.8 °F 53% 30.03 in 10.0 mi NW 4.6 mph - N/A   Clear